Current weather by "City, St" or "zip code"  
 
Advertise Here

Current Conditions: San Diego International Airport, CA

Mostly Cloudy


63.0 F

Last Updated on Nov 23 2020, 6:51 pm PST
Humidity: 63%
Wind Speed: N 0.0 mph
Barometer 29.96 in
Dewpoint: 50.0 F
Visibility: 10.00 mi
Precip: --
Heat Index: NA
Wind Chill: NA
Current conditions at:

San Diego International Airport, CA (KSAN)

Lat: 32.73361 Lon: 117.18306

Local Radar Image active severe weather and emergency alerts image image weather storm and storm spotter reports image weather observation monitoring service image
Local
Radar
Active
Alerts
Storm Reports Obs
Monitoring

Sign-up For Email & Text Message Weather Alert Notification Services


Advertise Here

Observation History for San Diego International Airport, CA


Time Wind
(mph)
Vis
(mi)
Weather Precip (in) Temperature (F) Relative
Humidity
Wind
Chill
(F)
Heat
Index
(F)
Pressure
Air Dwpt altimeter
(in)
sea level
(mb)
Rmks
6:51 pm PST N 0.0 10.00 Mostly Cloudy -- 63.0 50.0 63% NA NA 29.96 1014.3
5:51 pm PST 4.6 10.00 Mostly Cloudy -- 63.0 51.1 65% 64 NA 29.93 1013.4
4:51 pm PST S 4.6 10.00 Mostly Cloudy -- 63.0 52.0 68% 64 NA 29.91 1012.7
3:51 pm PST SW 5.8 10.00 Mostly Cloudy -- 64.0 52.0 65% NA NA 29.90 1012.6
1:51 pm PST 6.9 10.00 Mostly Cloudy -- 65.0 51.1 61% NA NA 29.90 1012.5
11:51 am PST SW 8.1 10.00 Mostly Cloudy -- 65.0 51.1 61% NA NA 29.92 1013.2
10:51 am PST SW 8.1 10.00 Mostly Cloudy -- 64.0 51.1 63% NA NA 29.94 1013.8
9:51 am PST SE 6.9 9.00 Mostly Cloudy -- 63.0 52.0 68% 63 NA 29.95 1014.1
8:51 am PST E 4.6 6.00 Mostly Cloudy with Haze -- 61.0 52.0 72% 61 NA 29.95 1014.1
7:51 am PST E 3.5 5.00 Fog/Mist -- 60.0 52.0 75% NA NA 29.94 1013.9
6:51 am PST N 0.0 5.00 Fog/Mist -- 59.0 53.1 81% NA NA 29.92 1013.1
5:51 am PST NE 4.6 5.00 Mostly Cloudy with Haze -- 57.0 52.0 83% 57 NA 29.92 1012.9
4:51 am PST E 3.5 2.00 Fog/Mist -- 57.0 52.0 83% NA NA 29.90 1012.5
3:51 am PST E 4.6 3.00 Fog/Mist -- 56.0 52.0 87% 55 NA 29.88 1011.8
2:51 am PST E 6.9 2.00 Fog/Mist -- 57.0 54.0 90% 56 NA 29.89 1012.1
1:51 am PST SW 4.6 0.25 Fog -- 59.0 55.9 90% 59 NA 29.90 1012.6
12:51 am PST N 0.0 0.25 Fog -- 59.0 55.9 90% NA NA 29.91 1012.8
11:51 pm PST N 0.0 0.25 Fog -- 59.0 55.9 90% NA NA 29.92 1013.3
10:51 pm PST N 0.0 0.13 Fog -- 59.0 55.9 90% NA NA 29.92 1013.2
9:51 pm PST N 0.0 0.25 Fog -- 59.0 57.0 93% NA NA 29.93 1013.5
8:51 pm PST N 0.0 0.25 Fog -- 59.0 55.9 90% NA NA 29.93 1013.3
7:51 pm PST 3.5 1.00 Fog/Mist -- 60.0 57.0 90% NA NA 29.93 1013.3

Regional Weather Observation


San Diego, Montgomery Field, CA (KMYF)

Overcast
60.0 F

San Diego International Airport, CA (KSAN)

Mostly Cloudy
63.0 F

San Diego, North Island, Naval Air Station, CA (KNZY)

Mostly Cloudy
60.0 F

Carlsbad, McClellan-Palomar Airport, CA (KCRQ)

Partly Cloudy
58.0 F

Oceanside, Oceanside Municipal Airport, CA (KOKB)

Overcast
51.0 F

Imperial Beach Naval Outlying Field - Ream Field, CA (KNRS)

Mostly Cloudy
62.0 F